TimePDT,TemperatureF,Dew PointF,Humidity,Sea Level PressureIn,VisibilityMPH,Wind Direction,Wind SpeedMPH,Gust SpeedMPH,PrecipitationIn,Events,Conditions,WindDirDegrees,DateUTC
12:56 AM,53.1,48.0,83,29.88,10.0,SE,4.6,-,N/A,,Clear,140,2013-09-25 07:56:00
1:56 AM,53.1,48.9,86,29.89,10.0,Calm,Calm,-,N/A,,Clear,0,2013-09-25 08:56:00
2:56 AM,51.1,48.0,89,29.88,10.0,Calm,Calm,-,N/A,,Clear,0,2013-09-25 09:56:00
3:56 AM,59.0,46.9,64,29.86,10.0,NNW,12.7,-,N/A,,Clear,330,2013-09-25 10:56:00
4:56 AM,57.9,46.0,65,29.88,10.0,NNW,10.4,18.4,N/A,,Clear,330,2013-09-25 11:56:00
5:56 AM,61.0,44.1,54,29.87,10.0,NNW,11.5,-,N/A,,Clear,340,2013-09-25 12:56:00
6:56 AM,57.0,43.0,59,29.88,10.0,WNW,5.8,-,N/A,,Clear,290,2013-09-25 13:56:00
7:56 AM,61.0,44.1,54,29.89,10.0,NNW,5.8,-,N/A,,Clear,330,2013-09-25 14:56:00
8:56 AM,64.9,43.0,45,29.90,10.0,North,15.0,23.0,N/A,,Clear,360,2013-09-25 15:56:00
9:56 AM,68.0,43.0,40,29.91,10.0,North,15.0,24.2,N/A,,Clear,360,2013-09-25 16:56:00
10:56 AM,70.0,42.1,36,29.88,10.0,North,-9999.0,-,N/A,,Clear,0,2013-09-25 17:56:00
11:56 AM,70.0,46.9,44,29.87,10.0,NW,17.3,25.3,N/A,,Clear,320,2013-09-25 18:56:00
12:56 PM,72.0,48.0,43,29.86,10.0,NW,19.6,25.3,N/A,,Clear,320,2013-09-25 19:56:00
1:56 PM,70.0,48.0,46,29.84,10.0,NW,20.7,-,N/A,,Clear,320,2013-09-25 20:56:00
2:56 PM,68.0,48.0,49,29.83,10.0,NW,23.0,33.4,N/A,,Clear,310,2013-09-25 21:56:00
3:56 PM,66.0,48.0,52,29.81,10.0,NW,20.7,29.9,N/A,,Clear,310,2013-09-25 22:56:00
4:56 PM,64.9,48.9,56,29.79,10.0,NW,23.0,29.9,N/A,,Clear,310,2013-09-25 23:56:00
5:56 PM,62.1,48.0,60,29.78,10.0,NW,17.3,27.6,N/A,,Clear,310,2013-09-26 00:56:00
6:56 PM,57.9,48.9,72,29.79,10.0,NW,15.0,21.9,N/A,,Clear,310,2013-09-26 01:56:00
7:56 PM,57.0,48.9,74,29.79,10.0,WNW,12.7,24.2,N/A,,Clear,300,2013-09-26 02:56:00
8:56 PM,57.0,48.9,74,29.79,10.0,NNW,11.5,-,N/A,,Clear,330,2013-09-26 03:56:00
9:53 PM,55.4,48.2,77,29.80,10.0,NW,12.7,74.8,N/A,,Squalls,320,2013-09-26 04:53:00
9:56 PM,55.9,48.9,77,29.80,10.0,West,12.7,66.7,N/A,,Clear,280,2013-09-26 04:56:00
10:56 PM,55.0,48.0,77,29.81,10.0,North,-9999.0,-,N/A,,Clear,0,2013-09-26 05:56:00
11:56 PM,54.0,48.0,80,29.81,10.0,West,8.1,-,N/A,,Clear,270,2013-09-26 06:56:00